Regional Weather Roundup
Issued by NWS

Home | Current Version | Previous Version | Graphics & Text | Print | Product List | Glossary On
Versions: 1 2 3 4 5 6 7 8 9 10 11 12 13 14 15 16 17 18 19 20 21 22 23 24 25 26 27 28 29 30 31 32 33 34 35 36 37 38 39 40 41 42 43 44 45 46 47 48 49 50
000
ASUS43 KDMX 222207
RWRIA

WEATHER ROUNDUP FOR IOWA
NATIONAL WEATHER SERVICE DES MOINES IA
400 PM CST SAT NOV 22 2014

NOTE: "FAIR" INDICATES FEW OR NO CLOUDS BELOW 12,000 FEET WITH NO
SIGNIFICANT WEATHER AND/OR OBSTRUCTIONS TO VISIBILITY.

* - THESE STATIONS ARE NOT NWS STATIONS...THUS NOT UNDER NWS
QUALITY CONTROL.  THEY ALSO DO NOT REPORT WEATHER SUCH
AS PRECIPITATION OR FOG.

IAZ001>003-012>014-020>022-031>034-043>046-222300-
   NORTHWEST IOWA

CITY           SKY/WX    TMP DP  RH WIND       PRES   REMARKS
CARROLL *      CLEAR     48  43  81 S12       29.67S
CHEROKEE *     PTCLDY    41  39  93 S7        29.61F FOG
DENISON *      CLEAR     48  43  81 S7        29.64F
LE MARS *      CLEAR     43  39  87 S13G18    29.58F
ORANGE CITY *  CLEAR     41  37  87 S14       29.57F
SHELDON *      CLEAR     41  39  93 S16       29.56F FOG
SIOUX CITY     MOCLDY    46  38  73 SE10      29.60F
SPENCER        PTCLDY    40  37  89 S12       29.61F FOG     WCI  33
STORM LAKE *   CLEAR     43  39  87 S14       29.63F FOG
$$

IAZ055>058-069>071-079>083-090>094-222300-
   SOUTHWEST IOWA

CITY           SKY/WX    TMP DP  RH WIND       PRES   REMARKS
ATLANTIC *     CLOUDY    54  50  87 S15G21    29.68S
AUDUBON *      CLEAR     52  43  71 S10       29.68F
CLARINDA *     FOG       52  52 100 S9        29.73F VSB 1/2
COUNCIL BLFS * CLEAR     57  52  82 S17       29.65F
CRESTON *      FOG       50  50 100 S12       29.73F VSB 1/4
HARLAN  *      CLEAR     54  46  76 S12       29.70F
LAMONI         CLOUDY    54  54 100 S15       29.76F FOG
RED OAK *      CLOUDY    54  52  94 S12       29.70F FOG
SHENANDOAH *   FOG       54  52  94 S8        29.71F VSB 3/4
$$

IAZ047>049-059>061-072>074-084-222300-
   CENTRAL IOWA

CITY           SKY/WX    TMP DP  RH WIND       PRES   REMARKS
AMES           CLEAR     53  43  68 S12       29.71F
ANKENY *       CLOUDY    54  50  87 S13G20    29.72F
CHARITON *     FOG       50  50 100 S3        29.76S VSB 0
DES MOINES     CLOUDY    53  49  86 S12       29.73F
GRINNELL*      CLOUDY    50  48  93 S13       29.74F FOG
KNOXVILLE *    FOG       52  50  93 SW9       29.75S VSB 1
MARSHALLTOWN   CLEAR     52  44  74 S10       29.72S
PELLA *        CLOUDY    52  50  93 SW7       29.77S FOG
PERRY *          N/A     54  46  76 SW20G28   29.69F
$$

IAZ004>006-015-016-023>025-035-036-222300-
   NORTH CENTRAL IOWA

CITY           SKY/WX    TMP DP  RH WIND       PRES   REMARKS
ALGONA *       CLOUDY    41  39  93 S14       29.65F FOG
CLARION *      CLEAR     45  45 100 S12       29.67F
ESTHERVILLE    CLOUDY    38  37  97 S20G29    29.61F FOG     WCI  28
FORT DODGE *   CLEAR     45  39  81 S9        29.68F
MASON CITY     CLOUDY    42  40  92 S13       29.69F FOG
FOREST CITY *  CLOUDY    41  41 100 S10       29.67S FOG
IOWA FALLS *     N/A     48  43  81 S10       29.71S
$$

IAZ007>011-017>019-026>030-037>042-050>054-066-222300-
   NORTHEAST IOWA

CITY           SKY/WX    TMP DP  RH WIND       PRES   REMARKS
CEDAR RAPIDS   CLOUDY    50  49  96 S7        29.76F FOG
CHARLES CITY * CLEAR     43  41  93 S6        29.70F
CLINTON *      CLOUDY    52  46  82 S8        29.83S
DECORAH *      CLOUDY    41  41 100 S5        29.71F FOG
DUBUQUE        CLOUDY    47  32  56 S12       29.77S FOG
MONTICELLO *   CLOUDY    48  48 100 S10       29.77F FOG
OELWEIN *      CLEAR     48  45  87 S10       29.73S
WATERLOO       CLEAR     50  44  80 SW9       29.72S
$$

IAZ064-065-067-068-078-222300-
   EAST CENTRAL IOWA

CITY           SKY/WX    TMP DP  RH WIND       PRES   REMARKS
DAVENPORT      CLOUDY    54  47  77 S15       29.81F
IOWA CITY      CLOUDY    54  51  90 S10       29.80S
MT. PLEASANT * CLOUDY    54  50  87 S13       29.82F
MUSCATINE *    CLOUDY    55  50  82 S15       29.81S
QUAD CITIES    CLOUDY    55  48  77 S14G21    29.82S
$$

IAZ062-063-075>077-085>089-095>099-222300-
   SOUTHEAST IOWA

CITY           SKY/WX    TMP DP  RH WIND       PRES   REMARKS
BURLINGTON     CLOUDY    55  51  86 S16       29.84S
FAIRFIELD *    CLOUDY    55  50  82 S13       29.80S
FORT MADISON *   N/A     55  52  88 S5        29.85F
KEOKUK *       CLOUDY    57  50  77 S12       29.84S
OSKALOOSA *    CLOUDY    54  52  94 SW9       29.78S FOG
CENTERVILLE *  CLOUDY    55  55 100 S12       29.80F
OTTUMWA        CLOUDY    56  51  84 S14       29.78S
WASHINGTON *   CLOUDY    55  55 100 S15       29.79S
$$

ABBREVIATIONS USED IN REMARKS
   TC - TEMPERATURES IN CELSIUS
  WCI - WIND CHILL INDEX
   HX - HEAT INDEX
  VSB - VISIBILITY
$$




USA.gov is the U.S. government's official web portal to all federal, state and local government web resources and services.